Regional Weather Roundup
Issued by NWS

Home | Current Version | Previous Version | Text Only | Print | Product List | Glossary On
Versions: 1 2 3 4 5 6 7 8 9 10 11 12 13 14 15 16 17 18 19 20 21 22 23 24 25 26 27 28 29 30 31 32 33 34 35 36 37 38 39 40 41 42 43 44 45 46 47 48 49 50
000
ASUS42 KTBW 062016
RWRFL
FLORIDA REGIONAL WEATHER ROUNDUP
NATIONAL WEATHER SERVICE TAMPA BAY RUSKIN FL
400 PM EDT MON JUL 06 2015

NOTE: "FAIR" INDICATES FEW OR NO CLOUDS BELOW 12,000 FEET WITH NO
SIGNIFICANT WEATHER AND/OR OBSTRUCTIONS TO VISIBILITY.


FLZ001>010-012>015-112-114-115-062100-
PANHANDLE FLORIDA

CITY           SKY/WX    TMP DP  RH WIND       PRES   REMARKS
PENSACOLA      PTSUNNY   88  69  53 SE9       30.15F
PENSACOLA NAS  PTSUNNY   86  69  56 S9        30.15F
MILTON NAS     PTSUNNY   88  70  55 NW6       30.15
CRESTVIEW      PTSUNNY   90  68  48 W8        30.16F
DUKE FIELD     PTSUNNY   89  68  50 N3        30.14F
MARY ESTHER    MOSUNNY   91  68  47 VRB2      30.13F HX  95
TRI COUNTY     FAIR      87  70  56 VRB3      30.15F
PANAMA CITY    FAIR      86  74  67 SW6       30.13F
TYNDALL AFB    PTSUNNY   84  74  72 W6        30.15F
APALACHICOLA   CLOUDY    86  71  60 NW6       30.14F

STATION/POSITION SKY/WX   TEMP    WIND        PRES    WAVE   SWELL
                          AIR SEA DIR/SP/G            HT/PER HT/PER
                          (F)     (DEG/KT/KT) (MB)    (FT/S) (FT/S)
30.1N   87.6W              85 87  230/  2/  4 1020.6F   1/ 4
29.2N   88.2W              84 89  110/  6/  8 1021.4F   1/ 6   2/ 6
28.8N   86.0W              81 85   20/  8/ 10 1021.7F   2/ 9   2/ 9
PANAMA CITY BEAC           81 82  220/  7/  8 1021.4F
CAPE SAN BLAS    NOT AVBL
TOWER C                    79     310/ 11/ 12 1020.9F
28.5N   84.5W              85 86  310/ 12/ 12 1021.0F   2/ 5   2/ 5

$$
FLZ011-016>038-118-127-128-134-139-239-062100-
NORTH FLORIDA

CITY           SKY/WX    TMP DP  RH WIND       PRES   REMARKS
MARIANNA       PTSUNNY   87  72  60 W8        30.14F
TALLAHASSEE    CLOUDY    83  71  67 S5        30.14F THUNDER
PERRY          PTSUNNY   89  65  45 SW9       30.14F
CROSS CITY       N/A     92  68  45 W13       30.13F HX  96
LAKE CITY      FAIR      88  70  55 CALM      30.13F
GAINESVILLE    PTSUNNY   89  66  46 W7        30.12F
MAYPORT NAS    MOSUNNY   83  72  69 E13       30.13F
JACKSONVILLE   MOSUNNY   89  70  53 VRB5      30.11F
JAX NAS        PTSUNNY   92  67  43 E7        30.12F HX  95
JAX CRAIG      SUNNY     86  72  62 E10       30.12F
JAX CECIL        N/A    N/A N/A N/A S6        30.12F
FERNANDINA BEA FAIR      84  72  65 SE10      30.12F
ST AUGUSTINE   SUNNY     83  73  72 SE10      30.14F

STATION/POSITION SKY/WX   TEMP    WIND        PRES    WAVE   SWELL
                          AIR SEA DIR/SP/G            HT/PER HT/PER
                          (F)     (DEG/KT/KT) (MB)    (FT/S) (FT/S)
SHELL POINT                86     200/  7/  9   N/A
KEATON BEACH               85     280/  6/  9 1020.7F
CEDAR KEY                  86     290/  8/ 11 1021.0F
FERNANDINA                 83 78  120/  6/ 10 1020.3F
30.7N   81.3W                 78                N/A     2/ 9
MAYPORT                    80 76  120/  7/ 12 1021.4F
31.4N   80.9W              77 81  160/ 10/ 12 1020.7F   2/ 8   2/ 8
ST AUGUSTINE               77 75  130/  6/  7 1021.4F

$$
FLZ040-043>046-052-053-057-058-063-144-062100-
INTERIOR CENTRAL FLORIDA

CITY           SKY/WX    TMP DP  RH WIND       PRES   REMARKS
OCALA          MOSUNNY   79  70  73 NE5       30.15F
THE VILLAGES     N/A    N/A N/A N/A CALM      30.06S
LEESBURG       TSTM      75  72  90 W13G18    30.18R VSB 3/4
SANFORD        PTSUNNY   91  69  48 VRB6      30.12F HX  96
ORLANDO EXEC   PTSUNNY   91  73  55 VRB5      30.12F HX  99
ORLANDO INTL   PTSUNNY   91  72  52 S10       30.12F HX  98
KISSIMMEE      MOSUNNY   91  70  49 W5        30.13F HX  97
WINTER HAVEN   PTSUNNY   92  71  50 NW3       30.14F HX  98
LAKELAND       MOSUNNY   90  70  51 SW6       30.13F HX  95
OKEECHOBEE     SUNNY     91  72  52 S3        30.14F HX  98

$$
FLZ041-047-054-059-064-141-147-062100-
EAST CENTRAL FLORIDA

CITY           SKY/WX    TMP DP  RH WIND       PRES   REMARKS
ORMOND BEACH   MOSUNNY  N/A N/A N/A E12       30.14F
DAYTONA BEACH  MOSUNNY   85  73  67 E13       30.14F
DELAND           N/A     82  72  69 W21G29    30.14S
NEW SMYRNA BEA MOSUNNY   82  72  69 E9        30.15F
TITUSVILLE     LGT RAIN  79  75  89 E12       30.15F
CAPE CANAVERAL MOSUNNY   85  69  60 E8        30.13F
PATRICK AFB    MOSUNNY   86  72  63 SE14      30.13F
MELBOURNE      MOSUNNY   87  65  47 E13       30.13F
VERO BEACH     PTSUNNY   89  74  60 E7        30.14F HX  98
FT PIERCE      PTSUNNY   84  77  79 E6        30.14F
STUART         MOSUNNY   86  75  70 E9        30.15F HAZE    HX  95

STATION/POSITION SKY/WX   TEMP    WIND        PRES    WAVE   SWELL
                          AIR SEA DIR/SP/G            HT/PER HT/PER
                          (F)     (DEG/KT/KT) (MB)    (FT/S) (FT/S)
28.5N   80.2W              83 87   90/  2/  4 1021.6F
28.9N   78.5W              79 84  280/ 17/ 19 1021.9F
TRIDENT PIER               86 77   90/  7/ 10 1021.8F
28.4N   80.5W                 80                N/A     2/ 9
27.5N   80.2W                 84                N/A     2/ 5

$$
FLZ050-056-061-142-242-148-248-149-249-151-251-155-255-
160-260-062100-
WEST CENTRAL FLORIDA

CITY           SKY/WX    TMP DP  RH WIND       PRES   REMARKS
CRYSTAL RIVER  FAIR      90  70  51 NW6       30.14F HX  95
INVERNESS      FAIR     N/A N/A N/A NE7       30.15F
BROOKSVILLE    CLOUDY    91  72  53 W12       30.15S HX  98
ZEPHYRHILLS    MOCLDY    88  68  51 CALM      30.15R
CLEARWATER     PTSUNNY   81  71  71 SE5       30.14F
TAMPA INTL     CLOUDY    80  70  71 CALM      30.14F
TAMPA EXEC     CLOUDY    81  73  78 CALM      30.14F
PLANT CITY     PTSUNNY   86  73  66 W10       30.15F
MACDILL AFB    CLOUDY    82  75  78 NW1       30.13F
PETER O KNIGHT CLOUDY    82  72  69 NW5       30.14F
ST PETERSBURG  LGT RAIN  83  68  60 NW3       30.13F
SARASOTA       PTSUNNY   86  76  71 W7        30.13F HX  96
VENICE         FAIR      86  75  70 W6        30.16R HX  95

STATION/POSITION SKY/WX   TEMP    WIND        PRES    WAVE   SWELL
                          AIR SEA DIR/SP/G            HT/PER HT/PER
                          (F)     (DEG/KT/KT) (MB)    (FT/S) (FT/S)
CEDAR KEY                  86     290/  8/ 11 1021.0F
28.5N   84.5W              85 86  310/ 12/ 12 1021.0F   2/ 5   2/ 5
27.3N   84.2W                 89                N/A     2/ 5
CLEARWATER BEACH NOT AVBL
MIDDLE TAMPA BAY                  290/  8/ 10 1021.6F
VENICE                     86 89  260/  4/  5 1020.6R

$$
FLZ066-069-070-075>078-162-262-165-265-062100-
SOUTHWEST FLORIDA AND KEYS

CITY           SKY/WX    TMP DP  RH WIND       PRES   REMARKS
PUNTA GORDA    PTSUNNY   88  74  63 SE8       30.14F THUNDER HX  96
FT MYERS       PTSUNNY   90  70  51 CALM      30.12S HX  95
SOUTHWEST INTL MOSUNNY   90  70  51 CALM      30.12F HX  95
NAPLES         MOSUNNY   90  73  58 W7        30.11F HX  98
MARCO ISLAND   CLEAR     91  72  52 E3        30.12F HX  98
MARATHON       MOSUNNY   91  78  65 SE7       30.12F HX 106
KEY WEST NAS   MOSUNNY   90  76  63 E13       30.12F HX 101
KEY WEST INTL  SUNNY     90  78  68 SE9       30.12F HX 104

STATION/POSITION SKY/WX   TEMP    WIND        PRES    WAVE   SWELL
                          AIR SEA DIR/SP/G            HT/PER HT/PER
                          (F)     (DEG/KT/KT) (MB)    (FT/S) (FT/S)
VENICE                     86 89  260/  4/  5 1020.6R
NAPLES                        89              1021.1F
26.0N   85.6W              85 86   60/  8/ 10 1020.4F   3/ 7   3/ 7
DRY TORTUGAS               85      90/  8/  9 1020.3F
NW FL BAY                  87     160/  9/ 11 1020.4
SAND KEY                   85     110/  8/ 10 1019.9F
SOMBRERO KEY               86      80/  8/ 10 1020.7F
LONG KEY                   86 88  130/  8/ 10 1021.1S
MOLASSES REEF              84 87  120/  8/  9 1020.5R

$$
FLZ067-068-071>074-168-172>174-062100-
SOUTHEAST FLORIDA

CITY           SKY/WX    TMP DP  RH WIND       PRES   REMARKS
W PALM BEACH   PTSUNNY   89  75  63 E13       30.14F HX  99
FT LAUDER-EXEC PTSUNNY   90  73  57 E14       30.12F HX  98
FT LAUDERDALE  MOSUNNY   90  75  61 SE16      30.12F HX 100
POMPANO BEACH  MOSUNNY   88  74  63 E12       30.13F HX  96
PEMBROKE PINES MOSUNNY   92  71  50 E13G20    30.13F HX  98
OPA LOCKA      MOSUNNY   91  73  55 SE14G20   30.13F HX  99
MIAMI          MOSUNNY   91  73  55 SE13G20   30.13F HX  99
WEST KENDALL   MOSUNNY   91  73  55 E13       30.13F HX  99
HOMESTEAD      PTSUNNY   90  75  62 E12       30.13F HX 100

STATION/POSITION SKY/WX   TEMP    WIND        PRES    WAVE   SWELL
                          AIR SEA DIR/SP/G            HT/PER HT/PER
                          (F)     (DEG/KT/KT) (MB)    (FT/S) (FT/S)
PORT EVERGLADES            88     120/  4/  7 1021.2F
VIRGINIA KEY               85 89  110/  6/  9 1020.7F
LAKE WORTH                 85 86  120/  6/  9 1020.9F
SETTLEMENT POINT           86     220/  2/  4 1021.8F

$$



USA.gov is the U.S. government's official web portal to all federal, state and local government web resources and services.